Regional Weather Roundup
Issued by NWS State College, PA

Home | Current Version | Previous Version | Graphics & Text | Print | Product List | Glossary On
Versions: 1 2 3 4 5 6 7 8 9 10 11 12 13 14 15 16 17 18 19 20 21 22 23 24 25 26 27 28 29 30 31 32 33 34 35 36 37 38 39 40 41 42 43 44 45 46 47 48 49 50
046
ASUS41 KCTP 101803
RWRCTP

REGIONAL WEATHER ROUNDUP
NATIONAL WEATHER SERVICE STATE COLLEGE PA
100 PM EST WED FEB 10 2016

Note: "fair" indicates few or no clouds below 12,000 feet with no
significant weather and/or obstructions to visibility.

* = STATION THAT DOES NOT REPORT PRECIPITATION /E.G. RAIN...SNOW...ETC/
    THUNDER OR FOG.

PAZ002>004-007>009-013>016-020>023-029>032-101900-
WESTERN PENNSYLVANIA

CITY           SKY/WX    TMP DP  RH WIND       PRES   REMARKS
ERIE           SNOW      23  19  85 W13G21    29.73S VSB 1/4 WCI  11
MEADVILLE      LGT SNOW  21  14  74 SW13G21   29.71S VSB 3/4 WCI   9
FRANKLIN*      CLOUDY    19  12  73 SW14G22   29.73F WCI   6
NEW CASTLE     FLURRIES  21  13  71 SW15G23   29.79S WCI   8
BEAVER COUNTY  LGT SNOW  19  14  79 SW12G17   29.80S WCI   7
BUTLER*        CLOUDY    18  12  79 SW13G22   29.82S WCI   4
PITTSBURGH INT LGT SNOW  19  11  70 SW17      29.80S WCI   4
PITTSBURGH     LGT SNOW  20  12  71 SW15      29.81R WCI   6
INDIANA*       CLOUDY    19  14  79 W16G23    29.78F HAZE    WCI   5
LATROBE        LGT SNOW  18  14  86 SW12G23   29.81F WCI   5
WASHINGTON CO* CLOUDY    19  10  68 SW15      29.83S WCI   5
$$

PAZ004>006-010>012-017>019-024>028-033>037-041-042-045-046-049>053-101900-
CENTRAL PENNSYLVANIA

CITY           SKY/WX    TMP DP  RH WIND       PRES   REMARKS
BRADFORD       LGT SNOW  20  14  77 W9        29.60S WCI   9
DUBOIS         LGT SNOW  19  13  77 SW16G23   29.67S WCI   4
CLEARFIELD     LGT SNOW  22  13  68 W17G29    29.69F WCI   8
JOHNSTOWN      FLURRIES  16   7  67 W14G24    29.67S WCI   2
ALTOONA        PTSUNNY   24  12  60 W18G25    29.72S WCI  10
STATE COLLEGE  CLOUDY    25  14  63 W20G29    29.70S WCI  11
WILLIAMSPORT   CLOUDY    31  19  61 W14       29.68S
SELINSGROVE    CLOUDY    30  16  56 W10G17    29.72F
FT INDIANTOWN  NOT AVBL
CAPITAL CITY   CLOUDY    32  16  51 W17G23    29.74S
HARRISBURG     CLOUDY    32  19  58 W20       29.73F
YORK           CLOUDY    30  16  56 W12G20    29.74F
$$

PAZ038>040-043-044-047-048-054-055-060>062-067>071-101900-
EASTERN PENNSYLVANIA

CITY           SKY/WX    TMP DP  RH WIND       PRES   REMARKS
SCRANTON       FLURRIES  30  21  69 SW15G21   29.60F
MOUNT POCONO   CLOUDY    27  17  66 W18G26    29.54F WCI  14
ALLENTOWN      CLOUDY    33  18  53 W16G22    29.66F
QUAKERTOWN*    NOT AVBL
READING        PTSUNNY   32  17  54 W17G23    29.69F
LANCASTER      CLOUDY    31  19  61 W23       29.71F
COATESVILLE    PTCLDY    30  21  69 W18       29.71S
POTTSTOWN      CLOUDY    32  19  58 W8G18     29.70F
BLUE BELL        N/A     32  21  64 W13G20    29.68F
DOYLESTOWN     CLOUDY    32  19  58 W13G23    29.66F
WILLOW GROVE   NOT AVBL
NORTH PHILA    CLOUDY    34  20  56 W16G25    29.70F
PHILADELPHIA   CLOUDY    35  18  49 W16G26    29.72F
$$




USA.gov is the U.S. government's official web portal to all federal, state and local government web resources and services.